This is the latest recevied weather packets stored in our database for station/object IW8ELN-10. If no packets are shown the sender has not sent any weather packets the latest 10 day(s).
| Time | Temp. | Humidity | Pressure | Rain* | Wind** | Luminosity | Snow |
|---|---|---|---|---|---|---|---|
| 1788187974 | 26.67° C | 64% | 988.2 hPa | - | - | - | - |
| 1788184374 | 26.67° C | 66% | 987.8 hPa | - | - | - | - |
| 1788180774 | 27.78° C | 62% | 987.8 hPa | - | - | - | - |
| 1788177174 | 26.67° C | 66% | 988.1 hPa | - | - | - | - |
| 1788173574 | 26.11° C | 68% | 988.3 hPa | - | - | - | - |
| 1788169974 | 25.56° C | 73% | 988.8 hPa | - | - | - | - |
| 1788166374 | 25° C | 74% | 988.9 hPa | - | - | - | - |
| 1788162774 | 25° C | 74% | 988.8 hPa | - | - | - | - |
| 1788159173 | 24.44° C | 79% | 988.8 hPa | - | - | - | - |
| 1788155573 | 23.89° C | 76% | 989.1 hPa | - | - | - | - |
| 1788151973 | 23.89° C | 77% | 989 hPa | - | - | - | - |
| 1788148373 | 23.89° C | 76% | 988.7 hPa | - | - | - | - |
| 1788144773 | 24.44° C | 77% | 988.7 hPa | - | - | - | - |
| 1788141173 | 24.44° C | 76% | 988.9 hPa | - | - | - | - |
| 1788137573 | 24.44° C | 78% | 989 hPa | - | - | - | - |
| 1788133972 | 25° C | 78% | 988.7 hPa | - | - | - | - |
| 1788130372 | 25° C | 76% | 988.7 hPa | - | - | - | - |
| 1788126772 | 25° C | 78% | 988.6 hPa | - | - | - | - |
| 1788123179 | 25.56° C | 77% | 988.5 hPa | - | - | - | - |
| 1788119574 | 25.56° C | 70% | 988 hPa | - | - | - | - |
| 1788097973 | 26.67° C | 63% | 986.6 hPa | - | - | - | - |
| 1788094372 | 26.67° C | 61% | 986.6 hPa | - | - | - | - |
| 1788090771 | 26.11° C | 59% | 987 hPa | - | - | - | - |
| 1788087178 | 25.56° C | 55% | 987.3 hPa | - | - | - | - |
| 1788083571 | 25° C | 53% | 987.5 hPa | - | - | - | - |
* Rain since midnight (hover to see other rain measurements)
** Current wind speed in m/s (hover to see current wind gust speed)